FW5754 Weather Reports


Display with metric or nautical units.
time (UTC)temp
F
wind
direction
speed
MPH
gust
MPH
rain 1hr
in
rain 24hr
in
rain mn
in
humidity
%
barometer
mb
20260508231535 56 261 6.0 15.0 0.00 0.00 0.00 64 1011.7
20260508231034 56 263 6.0 15.0 0.00 0.00 0.00 64 1011.6
20260508230531 57 254 5.0 12.0 0.00 0.00 0.00 64 1011.6
20260508230053 57 240 4.0 10.0 0.00 0.00 0.00 64 1011.6
20260508225530 57 244 5.0 12.0 0.00 0.00 0.00 63 1011.5
20260508225031 -56 244 5.0 12.0 0.00 0.00 0.00 62 1011.5
20260508224545 58 251 4.0 12.0 0.00 0.00 0.00 62 1011.4
20260508224034 57 248 4.0 12.0 0.00 0.00 0.00 63 1011.4
20260508223534 57 260 5.0 12.0 0.00 0.00 0.00 63 1011.4
20260508223045 57 261 5.0 13.0 0.00 0.00 0.00 64 1011.5
20260508222534 56 267 6.0 14.0 0.00 0.00 0.00 67 1011.6
20260508222034 -61 258 9.0 15.0 0.00 0.00 0.00 1011.7
20260508221551 -63 300 9.0 15.0 0.00 0.00 0.00 1011.7
20260508221033 -63 296 11.0 15.0 0.00 0.00 0.00 1011.6
20260508220532 55 323 5.0 10.0 0.00 0.00 0.00 78 1011.6
20260508220046 55 323 5.0 10.0 0.00 0.00 0.00 77 1011.6
20260508215532 56 328 4.0 8.0 0.00 0.00 0.00 78 1011.6
20260508215034 56 329 4.0 6.0 0.00 0.00 0.00 77 1011.5
20260508214544 56 331 4.0 6.0 0.00 0.00 0.00 76 1011.4
20260508214032 56 331 3.0 5.0 0.00 0.00 0.00 76 1011.4
20260508213533 -61 331 2.0 4.0 0.00 0.00 0.00 1011.3
20260508213045 55 331 2.0 5.0 0.00 0.00 0.00 75 1011.3
20260508212531 -61 331 2.0 5.0 0.00 0.00 0.00 1011.4
20260508212030 55 331 3.0 5.0 0.00 0.00 0.00 100 1011.5
20260508211543 55 331 3.0 5.0 0.00 0.00 0.00 75 1011.4
20260508211034 -63 331 3.0 5.0 0.00 0.00 0.00 1011.4
20260508210536 54 331 2.0 9.0 0.00 0.00 0.00 79 1011.4
20260508210042 53 331 4.0 11.0 0.00 0.00 0.00 79 1011.2
20260508205533 53 331 8.0 15.0 0.00 0.00 0.00 78 1011.4
20260508205035 53 331 11.0 17.0 0.00 0.00 0.00 77 1011.5
20260508204548 54 332 13.0 22.0 0.00 0.00 0.00 75 1011.5
20260508204032 54 317 15.0 22.0 0.00 0.00 0.00 75 1011.4
20260508203533 54 341 16.0 24.0 0.00 0.00 0.00 76 1011.4
20260508203047 55 291 15.0 24.0 0.00 0.00 0.00 76 1011.3
20260508202534 55 263 16.0 24.0 0.00 0.00 0.00 74 1011.3
20260508202033 -61 279 15.0 24.0 0.00 0.00 0.00 73 1011.2
20260508201543 55 286 17.0 24.0 0.00 0.00 0.00 72 1011.3
20260508201032 56 270 17.0 25.0 0.00 0.00 0.00 72 1011.2
20260508200534 56 277 17.0 25.0 0.00 0.00 0.00 71 1011.1
20260508200052 56 263 16.0 25.0 0.00 0.00 0.00 100 1011.0
20260508195534 56 266 17.0 23.0 0.00 0.00 0.00 72 1011.1
20260508195034 57 268 16.0 23.0 0.00 0.00 0.00 70 1011.0
20260508194541 56 259 15.0 22.0 0.00 0.00 0.00 69 1010.9
20260508194033 56 241 13.0 19.0 0.00 0.00 0.00 1010.8
20260508193534 56 269 13.0 19.0 0.00 0.00 0.00 72 1010.8
20260508193044 56 282 11.0 17.0 0.00 0.00 0.00 100 1010.7
20260508192535 56 281 13.0 18.0 0.00 0.00 0.00 70 1010.7
20260508192033 56 281 13.0 18.0 0.00 0.00 0.00 71 1010.7
20260508191550 56 277 12.0 18.0 0.00 0.00 0.00 71 1010.5
20260508191034 56 276 13.0 21.0 0.00 0.00 0.00 70 1010.6
20260508190534 56 290 16.0 21.0 0.00 0.00 0.00 70 1010.7
20260508190050 -61 290 16.0 24.0 0.00 0.00 0.00 1010.9
20260508185533 -61 287 15.0 24.0 0.00 0.00 0.00 1010.9
20260508185032 -59 286 18.0 26.0 0.00 0.00 0.00 68 1010.8
20260508184546 56 279 18.0 26.0 0.00 0.00 0.00 68 1010.8
20260508184032 56 267 14.0 19.0 0.00 0.00 0.00 100 1010.9
20260508183532 -59 277 14.0 21.0 0.00 0.00 0.00 1010.9
20260508183044 158 268 14.0 21.0 0.00 0.00 0.00 1011.0
20260508182534 -59 277 14.0 22.0 0.00 0.00 0.00 1011.0
20260508182034 -56 266 14.0 22.0 0.00 0.00 0.00 1011.0
20260508181549 -54 248 13.0 26.0 0.00 0.00 0.00 1011.0
20260508181034 -54 262 12.0 26.0 0.00 0.00 0.00 1010.9
20260508180534 -54 265 11.0 21.0 0.00 0.00 0.00 1010.9
20260508180050 -54 277 12.0 21.0 0.00 0.00 0.00 1010.8
20260508175534 58 261 12.0 21.0 0.00 0.00 0.00 53 1010.8
20260508175034 58 264 12.0 21.0 0.00 0.00 0.00 52 1010.7
20260508174545 58 265 11.0 20.0 0.00 0.00 0.00 54 1010.9
20260508174032 58 261 11.0 20.0 0.00 0.00 0.00 55 1010.9
20260508173534 58 239 11.0 19.0 0.00 0.00 0.00 55 1011.1
20260508173045 58 266 13.0 21.0 0.00 0.00 0.00 57 1011.2
20260508172533 58 266 13.0 21.0 0.00 0.00 0.00 57 1011.2
20260508172033 57 278 10.0 19.0 0.00 0.00 0.00 58 1011.1
20260508171551 57 237 10.0 17.0 0.00 0.00 0.00 61 1011.2
20260508171037 56 265 10.0 15.0 0.00 0.00 0.00 61 1011.2
20260508170536 56 271 7.0 12.0 0.00 0.00 0.00 68 1011.2
20260508170054 56 262 8.0 14.0 0.00 0.00 0.00 67 1011.3
20260508165533 55 268 8.0 15.0 0.00 0.00 0.00 69 1011.3
20260508165034 55 262 10.0 17.0 0.00 0.00 0.00 69 1011.4
20260508164548 55 273 11.0 17.0 0.00 0.00 0.00 71 1011.4
20260508164033 54 269 11.0 16.0 0.00 0.00 0.00 72 1011.4
20260508163533 54 267 10.0 15.0 0.00 0.00 0.00 74 1011.4
20260508163037 54 264 8.0 16.0 0.00 0.00 0.00 73 1011.5
20260508162533 54 259 11.0 16.0 0.00 0.00 0.00 72 1011.7
20260508162035 54 262 10.0 15.0 0.00 0.00 0.00 74 1011.7
20260508161537 54 264 10.0 15.0 0.00 0.00 0.00 76 1011.8
20260508161032 54 265 10.0 14.0 0.00 0.00 0.00 75 1011.8
20260508160532 54 268 10.0 14.0 0.00 0.00 0.00 74 1011.8
20260508160051 54 261 10.0 14.0 0.00 0.00 0.00 74 1011.8
20260508155537 54 266 10.0 14.0 0.00 0.00 0.00 74 1011.9
20260508155032 54 266 9.0 14.0 0.00 0.00 0.00 75 1011.9
20260508154539 54 273 10.0 15.0 0.00 0.00 0.00 76 1011.8
20260508154033 53 260 10.0 15.0 0.00 0.00 0.00 77 1011.9
20260508153532 53 263 9.0 15.0 0.00 0.00 0.00 77 1011.9
20260508153037 53 270 9.0 13.0 0.00 0.00 0.00 77 1011.9
20260508152532 53 271 9.0 12.0 0.00 0.00 0.00 77 1011.8
20260508152032 53 270 8.0 11.0 0.00 0.00 0.00 76 1011.8
20260508151546 53 271 7.0 11.0 0.00 0.00 0.00 77 1011.7
20260508151033 53 268 8.0 14.0 0.00 0.00 0.00 78 1011.7
20260508150533 53 266 8.0 14.0 0.00 0.00 0.00 78 1011.8
20260508150044 -66 268 10.0 14.0 0.00 0.00 0.00 1011.9
20260508145534 -66 267 10.0 14.0 0.00 0.00 0.00 1011.9
20260508145031 -66 274 10.0 14.0 0.00 0.00 0.00 1012.0
20260508144539 -66 267 9.0 14.0 0.00 0.00 0.00 1011.9
20260508144035 -66 269 9.0 14.0 0.00 0.00 0.00 1011.9
20260508143534 -68 269 9.0 17.0 0.00 0.00 0.00 1011.8
20260508143040 -68 263 10.0 17.0 0.00 0.00 0.00 78 1011.9
20260508142533 51 266 11.0 16.0 0.00 0.00 0.00 78 1012.0
20260508142034 52 270 11.0 16.0 0.00 0.00 0.00 78 1012.0
20260508141539 52 263 11.0 16.0 0.00 0.00 0.00 78 1011.9
20260508141032 52 263 11.0 14.0 0.00 0.00 0.00 78 1012.0
20260508140533 52 265 9.0 13.0 0.00 0.00 0.00 78 1012.0
20260508140039 52 266 8.0 12.0 0.00 0.00 0.00 78 1011.9
20260508135532 52 263 9.0 12.0 0.00 0.00 0.00 78 1011.9
20260508135035 52 259 9.0 13.0 0.00 0.00 0.00 78 1011.9
20260508134545 52 263 8.0 13.0 0.00 0.00 0.00 78 1012.0
20260508134031 52 267 9.0 13.0 0.00 0.00 0.00 78 1012.0
20260508133534 52 262 8.0 12.0 0.00 0.00 0.00 78 1012.0
20260508133042 52 264 8.0 12.0 0.00 0.00 0.00 78 1012.1
20260508132531 52 265 8.0 13.0 0.00 0.00 0.00 78 1012.1
20260508132034 52 273 8.0 14.0 0.00 0.00 0.00 78 1012.1
20260508131541 51 276 10.0 15.0 0.00 0.00 0.00 78 1012.2
20260508131034 51 275 11.0 15.0 0.00 0.00 0.00 78 1012.1
20260508130533 51 278 11.0 16.0 0.00 0.00 0.00 78 1012.2
20260508130106 51 280 10.0 17.0 0.00 0.00 0.00 78 1012.2
20260508125536 51 285 13.0 19.0 0.00 0.00 0.00 78 1012.2
20260508125035 51 290 14.0 19.0 0.00 0.00 0.00 78 1012.1
20260508124550 51 293 14.0 19.0 0.00 0.00 0.00 78 1012.2
20260508124034 51 292 13.0 17.0 0.00 0.00 0.00 78 1012.0
20260508123533 51 291 12.0 17.0 0.00 0.00 0.00 78 1012.1
20260508123037 50 294 14.0 17.0 0.00 0.00 0.00 77 1012.0
20260508122530 50 300 15.0 16.0 0.00 0.00 0.00 77 1011.9
20260508122030 50 300 12.0 15.0 0.00 0.00 0.00 78 1011.9
20260508121556 50 293 12.0 16.0 0.00 0.00 0.00 78 1011.8
20260508121029 51 297 12.0 17.0 0.00 0.00 0.00 78 1011.8
20260508120530 -70 298 14.0 17.0 0.00 0.00 0.00 1011.7
20260508120046 50 298 13.0 17.0 0.00 0.00 0.00 78 1011.7
20260508115531 -70 300 11.0 15.0 0.00 0.00 0.00 1011.7
20260508115030 -70 302 11.0 15.0 0.00 0.00 0.00 1011.6
20260508114538 50 304 12.0 15.0 0.00 0.00 0.00 77 1011.5
20260508114030 50 306 12.0 15.0 0.00 0.00 0.00 77 1011.5
20260508113531 50 307 11.0 16.0 0.00 0.00 0.00 77 1011.5
20260508113058 50 307 11.0 16.0 0.00 0.00 0.00 77 1011.4
20260508112531 50 307 13.0 16.0 0.00 0.00 0.00 77 1011.4
20260508112030 50 309 12.0 16.0 0.00 0.00 0.00 77 1011.4
20260508111537 50 309 13.0 16.0 0.00 0.00 0.00 77 1011.4
20260508111031 50 311 13.0 16.0 0.00 0.00 0.00 77 1011.2
20260508110530 50 308 13.0 16.0 0.00 0.00 0.00 77 1011.3
20260508110044 50 309 12.0 15.0 0.00 0.00 0.00 77 1011.3
20260508105532 50 306 12.0 14.0 0.00 0.01 0.00 77 1011.2
20260508105034 50 306 10.0 13.0 0.00 0.01 0.00 77 1011.1
20260508104608 50 306 10.0 12.0 0.00 0.01 0.00 76 1011.0
20260508104031 50 302 8.0 12.0 0.00 0.01 0.00 77 1011.0
20260508103534 50 302 9.0 12.0 0.00 0.01 0.00 77 1010.9
20260508103044 50 301 9.0 12.0 0.00 0.01 0.00 76 1011.0
20260508102530 -70 301 9.0 12.0 0.00 0.01 0.00 77 1011.0
20260508102034 50 301 8.0 12.0 0.00 0.01 0.00 77 1011.0
20260508101538 50 301 8.0 13.0 0.00 0.01 0.00 77 1010.9
20260508101031 -70 302 9.0 15.0 0.00 0.01 0.00 78 1010.9
20260508100530 -70 302 11.0 16.0 0.00 0.01 0.00 1010.9
20260508100038 -70 305 12.0 16.0 0.00 0.01 0.00 76 1010.9
20260508095531 -70 301 13.0 16.0 0.00 0.01 0.00 1011.0
20260508095034 51 300 12.0 14.0 0.00 0.01 0.00 77 1010.9
20260508094547 51 292 8.0 13.0 0.00 0.01 0.00 76 1010.7
20260508094030 51 292 10.0 13.0 0.00 0.01 0.00 1010.8
20260508093537 51 292 9.0 13.0 0.00 0.01 0.00 75 1010.7
20260508093042 51 293 8.0 15.0 0.00 0.01 0.00 75 1010.7
20260508092530 51 296 10.0 15.0 0.00 0.01 0.00 73 1010.8
20260508092032 51 296 11.0 15.0 0.00 0.01 0.00 73 1010.8
20260508091535 51 296 11.0 16.0 0.00 0.01 0.00 74 1010.9
20260508091031 51 298 12.0 16.0 0.00 0.01 0.00 74 1010.9
20260508090531 51 298 14.0 16.0 0.00 0.01 0.00 73 1010.8
20260508090047 51 301 12.0 17.0 0.00 0.01 0.00 73 1010.7
20260508085530 51 302 13.0 17.0 0.00 0.03 0.00 73 1010.7
20260508085031 51 303 13.0 18.0 0.00 0.03 0.00 72 1010.8
20260508084537 51 300 14.0 19.0 0.00 0.03 0.00 72 1010.7
20260508084032 51 301 16.0 19.0 0.00 0.03 0.00 71 1010.8
20260508083534 51 300 16.0 19.0 0.00 0.03 0.00 71 1010.7
20260508083102 51 315 15.0 19.0 0.00 0.03 0.00 71 1010.7
20260508082531 51 302 15.0 18.0 0.00 0.03 0.00 69 1010.7
20260508082030 51 308 15.0 22.0 0.00 0.03 0.00 70 1010.7
20260508081553 51 312 17.0 22.0 0.00 0.03 0.00 70 1010.7
20260508081031 51 309 16.0 22.0 0.00 0.03 0.00 70 1010.7
20260508080533 51 308 18.0 24.0 0.00 0.03 0.00 69 1010.7
20260508080042 51 311 17.0 24.0 0.00 0.03 0.00 70 1010.7
20260508075530 51 310 18.0 24.0 0.00 0.07 0.00 70 1010.8
20260508075033 51 309 17.0 20.0 0.00 0.07 0.00 70 1010.6
20260508074538 51 303 14.0 20.0 0.00 0.07 0.00 71 1010.6
20260508074032 50 300 16.0 20.0 0.00 0.07 0.00 71 1010.5
20260508073531 50 309 13.0 17.0 0.00 0.07 0.00 72 1010.4
20260508073048 50 313 11.0 16.0 0.00 0.07 0.00 73 1010.0
20260508072530 50 309 12.0 16.0 0.00 0.07 0.00 72 1010.1
20260508072030 50 299 11.0 15.0 0.00 0.07 0.00 72 1009.9
20260508071535 50 299 9.0 12.0 0.00 0.07 0.00 73 1009.7
20260508071030 50 291 8.0 10.0 0.00 0.07 0.00 74 1009.6
20260508070532 50 287 7.0 9.0 0.00 0.07 0.00 74 1009.6
20260508070134 50 287 6.0 8.0 0.00 0.07 0.00 76 1009.5
20260508065532 49 287 4.0 7.0 0.00 0.07 0.00 77 1009.4
20260508065031 49 287 3.0 5.0 0.00 0.07 0.00 79 1009.3
20260508064540 48 287 3.0 4.0 0.00 0.07 0.00 80 1009.3
20260508064032 47 287 2.0 4.0 0.00 0.07 0.00 78 1009.3
20260508063536 47 287 0.0 3.0 0.00 0.07 0.00 77 1009.2
20260508063040 47 0 0.0 3.0 0.00 0.07 0.00 77 1009.1
20260508062530 47 0 0.0 5.0 0.00 0.07 0.00 77 1009.1
20260508062031 48 287 2.0 5.0 0.00 0.07 0.00 79 1009.1
20260508061542 46 287 3.0 5.0 0.00 0.07 0.00 81 1009.1
20260508061033 45 287 2.0 5.0 0.00 0.07 0.00 1009.1
20260508060534 44 0 0.0 0.0 0.00 0.07 0.00 79 1009.2
20260508060038 158 0 0.0 0.0 0.00 0.07 0.00 79 1009.2
20260508055530 -79 0 0.0 0.0 0.00 0.07 0.00 1009.2
20260508055030 -79 0 0.0 0.0 0.00 0.07 0.00 1009.1
20260508054538 -79 0 0.0 0.0 0.00 0.07 0.00 1009.0
20260508054030 -79 0 0.0 0.0 0.00 0.07 0.00 79 1009.1
20260508053530 44 0 0.0 0.0 0.00 0.07 0.00 1009.1
20260508053050 44 0 0.0 0.0 0.00 0.07 0.00 77 1009.0
20260508052531 44 0 0.0 0.0 0.00 0.07 0.00 77 1009.0
20260508052029 44 0 0.0 0.0 0.00 0.07 0.00 76 1009.1
20260508051539 45 0 0.0 0.0 0.00 0.07 0.00 76 1009.1
20260508051031 46 0 0.0 0.0 0.00 0.07 0.00 76 1009.1
20260508050531 46 0 0.0 0.0 0.00 0.07 0.00 76 1009.2
20260508050055 46 0 0.0 2.0 0.00 0.07 0.00 76 1009.1
20260508045533 46 0 0.0 2.0 0.00 0.08 0.00 76 1009.2
20260508045030 46 0 0.0 0.0 0.00 0.08 0.00 77 1009.3
20260508044537 46 0 0.0 0.0 0.00 0.08 0.00 77 1009.3
20260508044031 -77 0 0.0 0.0 0.00 0.08 0.00 1009.4
20260508043530 -75 0 0.0 0.0 0.00 0.08 0.00 1009.4
20260508043057 47 0 0.0 0.0 0.00 0.08 0.00 100 1009.4
20260508042532 -72 0 0.0 2.0 0.00 0.08 0.00 1009.4
20260508042030 -72 0 0.0 3.0 0.00 0.08 0.00 77 1009.5
20260508041546 50 0 1.0 3.0 0.00 0.08 0.00 77 1009.4
20260508041030 -70 287 1.0 3.0 0.00 0.08 0.00 1009.5
20260508040530 -70 0 0.0 0.0 0.00 0.08 0.00 1009.6
20260508040043 -70 0 0.0 0.0 0.00 0.08 0.00 1009.4
20260508035530 -70 0 0.0 0.0 0.00 0.11 0.08 1009.6
20260508035031 -68 0 0.0 0.0 0.00 0.11 0.08 1009.5
20260508034545 52 0 0.0 3.0 0.00 0.11 0.08 69 1009.5
20260508034033 53 0 0.0 7.0 0.00 0.11 0.08 68 1009.5
20260508033529 53 287 1.0 7.0 0.00 0.11 0.08 100 1009.5
20260508033046 -66 287 3.0 8.0 0.00 0.11 0.08 1009.4
20260508032534 -63 287 3.0 9.0 0.00 0.11 0.08 1009.5
20260508032030 -66 0 4.0 9.0 0.00 0.11 0.08 1009.5
20260508031541 -66 275 4.0 8.0 0.00 0.11 0.08 1009.5
20260508031035 -68 273 4.0 8.0 0.00 0.11 0.08 1009.5
20260508030530 -72 0 0.0 4.0 0.00 0.11 0.08 1009.6
20260508030052 47 0 1.0 4.0 0.00 0.11 0.08 77 1009.6
20260508025531 -75 0 0.0 0.0 0.00 0.11 0.08 1009.5
20260508025030 -77 0 0.0 0.0 0.00 0.11 0.08 1009.5
20260508024540 46 0 0.0 0.0 0.00 0.11 0.08 77 1009.4
20260508024031 46 0 0.0 0.0 0.00 0.11 0.08 77 1009.4
20260508023531 47 0 0.0 0.0 0.00 0.11 0.08 77 1009.3
20260508023043 47 0 0.0 0.0 0.00 0.11 0.08 77 1009.4
20260508022532 47 0 0.0 0.0 0.00 0.11 0.08 77 1009.4
20260508022031 47 0 0.0 1.0 0.00 0.11 0.08 77 1009.5
20260508021544 47 0 0.0 2.0 0.00 0.11 0.08 77 1009.5
20260508021031 47 0 0.0 2.0 0.00 0.11 0.08 77 1009.5
20260508020530 48 262 1.0 2.0 0.00 0.11 0.08 77 1009.5
20260508020037 48 262 0.0 0.0 0.00 0.11 0.08 77 1009.5
20260508015530 48 0 0.0 0.0 0.00 0.11 0.08 77 1009.6
20260508015030 48 0 0.0 0.0 0.00 0.11 0.08 77 1009.4
20260508014537 48 0 0.0 0.0 0.00 0.11 0.08 77 1009.4
20260508014030 48 0 0.0 0.0 0.00 0.11 0.08 77 1009.4
20260508013530 48 0 0.0 0.0 0.00 0.11 0.08 76 1009.4
20260508013040 49 0 0.0 0.0 0.00 0.11 0.08 76 1009.4
20260508012530 49 0 0.0 0.0 0.00 0.11 0.08 75 1009.4
20260508012030 49 0 0.0 0.0 0.00 0.11 0.08 74 1009.3
20260508011547 50 0 0.0 0.0 0.00 0.11 0.08 73 1009.3
20260508011030 50 0 0.0 0.0 0.00 0.11 0.08 72 1009.1
20260508010530 50 0 0.0 0.0 0.00 0.11 0.08 71 1009.2
20260508010037 51 0 0.0 0.0 0.00 0.11 0.08 71 1009.1
20260508005530 51 0 0.0 0.0 0.00 0.11 0.08 69 1009.1
20260508005032 -68 0 0.0 0.0 0.00 0.11 0.08 1009.1
20260508004541 -66 0 0.0 3.0 0.00 0.11 0.08 1008.8
20260508004030 -66 0 0.0 3.0 0.00 0.11 0.08 1008.7
20260508003530 -66 0 0.0 3.0 0.00 0.11 0.08 1008.8
20260508003039 -66 0 0.0 3.0 0.00 0.11 0.08 1008.7
20260508002530 -66 262 0.0 3.0 0.00 0.11 0.08 1008.6
20260508002031 53 0 0.0 3.0 0.00 0.11 0.08 64 1008.5
20260508001537 54 0 0.0 3.0 0.00 0.11 0.08 62 1008.4
20260508001030 -63 0 0.0 3.0 0.00 0.11 0.08 1008.4
20260508000530 -63 0 0.0 2.0 0.00 0.11 0.08 1008.3
20260508000044 55 0 0.0 1.0 0.00 0.11 0.08 1008.4
20260507235530 -61 0 0.0 4.0 0.00 0.11 0.08 61 1008.4
20260507235030 55 0 1.0 4.0 0.00 0.11 0.08 1008.3
20260507234544 -61 0 1.0 4.0 0.00 0.11 0.08 1008.1
20260507234030 -61 262 2.0 4.0 0.00 0.11 0.08 1008.1
20260507233530 -61 262 2.0 6.0 0.00 0.11 0.08 1007.8
20260507233040 -59 262 2.0 7.0 0.00 0.11 0.08 1007.7
20260507232529 -56 262 3.0 7.0 0.00 0.11 0.08 1007.6
20260507232029 -56 262 3.0 7.0 0.00 0.11 0.08 1007.8